Location: Kitchener-Waterloo
(43.4500°N, 80.5000°W)
Time: 12:25:35
(UTC-04:00)

Amateur Radio Satellites - All Passes

Search period start: 23 March 2017 11:55
Search period end: 24 March 2017 11:55
Location: Kitchener-Waterloo, 43.4500°N, 80.5000°W

Satellite Date Start Highest point End Downlink Frequencies (MHz)
Time Altitude Azimuth
DUCHIFAT 1 23 Mar 12:06:53 12:11:03 57° 73° (ENE) 12:15:15 145.980
PCSat 23 Mar 12:10:08 12:15:22 48° 307° (NW) 12:20:38 145.827
Oscar 19 23 Mar 12:19:25 12:21:16 12° 57° (ENE) 12:23:08 437.125/150
RS-15 23 Mar 12:19:30 12:27:47 22° 98° (E) 12:36:13 29.354- 29.394
FO-29 23 Mar 12:30:51 12:37:14 27° 268° (W) 12:43:29 435.910
BUGSAT 1 23 Mar 12:38:24 12:42:23 43° 71° (ENE) 12:46:26 437.445
VELOX 1 23 Mar 12:42:22 12:45:24 18° 92° (E) 12:48:26 145.980
NO-84 23 Mar 12:49:01 12:49:26 10° 6° (N) 12:49:52 435.350 FM
ESTCUBE 1 23 Mar 12:49:02 12:53:33 67° 102° (ESE) 12:58:02 437.505/2401.250
NANOSAT C BR1 23 Mar 12:51:07 12:55:10 42° 262° (W) 12:59:15 145.865
EO-79 23 Mar 12:53:25 12:57:22 37° 262° (W) 13:01:22 145.935-145.965
LO-87 23 Mar 13:01:18 13:04:40 36° 288° (WNW) 13:08:02 145.935 - 145.965
AIST 2D 23 Mar 13:06:49 13:08:18 12° 269° (W) 13:09:47 435.315
UKube-1 23 Mar 13:20:20 13:22:15 13° 90° (E) 13:24:08 .
POLYITAN 1 23 Mar 13:21:27 13:24:34 19° 267° (W) 13:27:42 437.675
QB50P2 23 Mar 13:26:24 13:29:05 16° 268° (W) 13:31:48 145.880/145.840
Gurwin Techsat 1B 23 Mar 13:40:03 13:44:53 36° 67° (ENE) 13:49:44 435.225
DUCHIFAT 1 23 Mar 13:44:59 13:47:05 13° 270° (W) 13:49:11 145.980
SPROUT 23 Mar 13:53:33 13:57:53 89° 88° (E) 14:02:10 437.525
Oscar 19 23 Mar 13:54:39 13:59:45 83° 74° (ENE) 14:04:55 437.125/150
PCSat 23 Mar 13:58:19 14:00:09 12° 329° (NNW) 14:02:00 145.827
ITAMSAT 1 23 Mar 13:59:28 14:00:15 10° 54° (NE) 14:01:03 435.822/435.867
DX 1 23 Mar 14:06:49 14:11:09 57° 101° (E) 14:15:28 434.975-435.025
BUGSAT 1 23 Mar 14:15:06 14:17:57 17° 268° (W) 14:20:49 437.445
50 SAT 23 Mar 14:16:07 14:19:34 56° 286° (WNW) 14:23:01 437.505
AO-7 23 Mar 14:17:04 14:23:38 27° 53° (NE) 14:30:11 .
VELOX 1 23 Mar 14:17:49 14:22:06 46° 289° (WNW) 14:26:21 145.980
NO-84 23 Mar 14:25:17 14:27:54 23° 27° (NNE) 14:30:41 435.350 FM
RS-15 23 Mar 14:26:18 14:38:18 83° 121° (ESE) 14:50:44 29.354- 29.394
ESTCUBE 1 23 Mar 14:27:27 14:29:49 14° 299° (WNW) 14:32:09 437.505/2401.250
UKube-1 23 Mar 14:54:23 14:58:40 62° 287° (WNW) 15:02:57 .
BEESAT 23 Mar 15:13:46 15:16:49 17° 91° (E) 15:19:50 436.000
SO-50 23 Mar 15:16:05 15:18:28 14° 109° (ESE) 15:20:51 436.795
Gurwin Techsat 1B 23 Mar 15:20:11 15:24:50 31° 264° (W) 15:29:32 435.225
ITUPSAT 1 23 Mar 15:27:02 15:30:44 22° 94° (E) 15:34:25 437.325
ITAMSAT 1 23 Mar 15:33:33 15:38:44 69° 73° (ENE) 15:43:58 435.822/435.867
Oscar 19 23 Mar 15:37:42 15:39:42 12° 272° (W) 15:41:43 437.125/150
DX 1 23 Mar 15:44:16 15:46:53 16° 298° (WNW) 15:49:29 434.975-435.025
MOZHAYETS 4 23 Mar 16:01:59 16:05:28 21° 93° (E) 16:08:55
NO-84 23 Mar 16:02:25 16:05:37 52° 223° (SW) 16:09:08 435.350 FM
AO-7 23 Mar 16:07:15 16:15:36 79° 253° (WSW) 16:23:58 .
RS-15 23 Mar 16:41:03 16:52:17 40° 327° (NNW) 17:03:44 29.354- 29.394
CUBESAT XI-V 23 Mar 16:47:08 16:47:39 10° 88° (E) 16:48:10 437.345
BEESAT 23 Mar 16:50:16 16:54:56 55° 288° (WNW) 16:59:34 436.000
SO-50 23 Mar 16:53:43 16:58:22 73° 306° (NW) 17:02:58 436.795
CUTE-I 23 Mar 17:02:12 17:03:40 11° 55° (NE) 17:05:07 437.470
ITUPSAT 1 23 Mar 17:04:14 17:08:43 42° 291° (WNW) 17:13:10 437.325
ITAMSAT 1 23 Mar 17:15:38 17:18:42 16° 270° (W) 17:21:47 435.822/435.867
MOZHAYETS 4 23 Mar 17:38:31 17:42:46 40° 290° (WNW) 17:47:00
KKS-1 23 Mar 17:44:51 17:49:16 54° 101° (E) 17:53:39 437.445
YUBILEINY 23 Mar 17:56:01 18:01:00 16° 57° (ENE) 18:05:57 435.215
LilacSat-2 23 Mar 17:58:55 18:02:10 27° 69° (ENE) 18:05:25 437.200
O/OREOS (USA 219) 23 Mar 18:02:13 18:06:28 43° 107° (ESE) 18:10:49 437.305
HO-68 23 Mar 18:03:13 18:07:14 16° 50° (NE) 18:11:15 435.675
XW-2F 23 Mar 18:03:49 18:07:04 28° 70° (ENE) 18:10:21 145.980 - 146.000
AO-7 23 Mar 18:04:56 18:09:36 16° 272° (W) 18:14:17 .
DOVE 4 23 Mar 18:06:55 18:11:19 47° 71° (ENE) 18:16:01 437.250
CUBESAT XI-V 23 Mar 18:20:57 18:25:36 84° 287° (WNW) 18:30:17 437.345
XW-2D 23 Mar 18:26:58 18:30:43 56° 74° (ENE) 18:34:28 145.860 - 145.880
M-CUBED/EXP-1 PRIME 23 Mar 18:29:08 18:29:48 10° 93° (E) 18:30:29 437.505
STARS 23 Mar 18:30:47 18:35:15 74° 103° (ESE) 18:39:38 437.465
XW-2B 23 Mar 18:32:46 18:36:33 64° 75° (ENE) 18:40:20 145.730 - 145.750
SO-50 23 Mar 18:37:07 18:39:37 14° 326° (NW) 18:42:07 436.795
CUTE-I 23 Mar 18:37:24 18:42:45 71° 73° (ENE) 18:48:07 437.470
NUDT-PHONESAT 23 Mar 18:38:59 18:42:42 62° 75° (ENE) 18:46:25 437.300
KAITUO 1B 23 Mar 18:41:50 18:45:34 67° 76° (ENE) 18:49:19 145.475/437.950
XW-2C 23 Mar 18:42:45 18:46:34 87° 84° (E) 18:50:25 145.795 - 145.815
RS-15 23 Mar 18:59:30 19:09:29 27° 1° (N) 19:19:22 29.354- 29.394
PCSat 23 Mar 19:13:38 19:18:26 30° 47° (NE) 19:23:12 145.827
CUTE 1.7 + AOD 2 23 Mar 19:21:10 19:24:47 28° 69° (ENE) 19:28:24 437.475
SEEDS 23 Mar 19:21:34 19:24:33 19° 66° (ENE) 19:27:33 437.485
KKS-1 23 Mar 19:22:31 19:25:25 17° 297° (WNW) 19:28:17 437.445
STRAND 1 23 Mar 19:29:27 19:31:42 13° 89° (E) 19:33:57 437.568
LilacSat-2 23 Mar 19:33:21 19:36:25 22° 266° (W) 19:39:29 437.200
XW-2F 23 Mar 19:38:17 19:41:14 21° 266° (W) 19:44:11 145.980 - 146.000
UWE-3 23 Mar 19:38:57 19:41:42 16° 63° (ENE) 19:44:26 435.000/436.395/437.385
O/OREOS (USA 219) 23 Mar 19:42:33 19:46:05 22° 306° (NW) 19:49:40 437.305
XW-2A 23 Mar 19:44:41 19:48:06 66° 76° (ENE) 19:51:33 145.665 - 145.685
DOVE 4 23 Mar 19:46:00 19:49:19 19° 270° (W) 19:52:47 437.250
HO-68 23 Mar 19:46:40 19:53:46 73° 71° (ENE) 20:00:55 435.675
YUBILEINY 23 Mar 19:50:49 19:59:33 74° 80° (E) 20:08:14 435.215
M-CUBED/EXP-1 PRIME 23 Mar 20:00:08 20:04:45 90° 107° (ESE) 20:09:26 437.505
CUBESAT XI-V 23 Mar 20:01:30 20:02:13 10° 302° (WNW) 20:02:56 437.345
CUBEBUG 2 23 Mar 20:03:23 20:07:50 41° 71° (ENE) 20:12:18 437.445
XW-2D 23 Mar 20:04:18 20:05:15 11° 270° (W) 20:06:12 145.860 - 145.880
STARS 23 Mar 20:09:03 20:10:58 13° 300° (WNW) 20:12:53 437.465
CUTE-I 23 Mar 20:20:10 20:23:19 16° 270° (W) 20:26:29 437.470
Oscar 11 23 Mar 20:25:47 20:28:54 20° 65° (ENE) 20:32:02 .
ZACube-1 23 Mar 20:26:12 20:30:00 26° 67° (ENE) 20:33:45 437.345
AAUSAT CUBESAT 2 23 Mar 20:50:10 20:54:17 88° 69° (ENE) 20:58:24 437.432
AO-73 23 Mar 20:55:56 21:00:18 47° 72° (ENE) 21:04:37 145.935
SEEDS 23 Mar 20:56:06 20:59:59 38° 262° (W) 21:03:54 437.485
PCSat 23 Mar 20:56:49 21:02:00 46° 247° (WSW) 21:07:08 145.827
CUTE 1.7 + AOD 2 23 Mar 20:57:03 21:00:35 26° 265° (W) 21:04:07 437.475
DELFI C3 23 Mar 21:06:17 21:08:33 15° 64° (ENE) 21:10:51 145.870
STRAND 1 23 Mar 21:06:20 21:11:29 79° 286° (WNW) 21:16:35 437.568
UWE-3 23 Mar 21:13:01 21:17:39 63° 259° (W) 21:22:16 435.000/436.395/437.385
RS-15 23 Mar 21:14:52 21:26:29 43° 35° (NE) 21:37:41 29.354- 29.394
M-CUBED/EXP-1 PRIME 23 Mar 21:36:30 21:38:32 13° 305° (NW) 21:40:35 437.505
HO-68 23 Mar 21:36:52 21:42:07 22° 269° (W) 21:47:26 435.675
CUBEBUG 2 23 Mar 21:40:50 21:44:34 23° 267° (W) 21:48:19 437.445
YUBILEINY 23 Mar 21:48:54 21:55:26 25° 280° (W) 22:01:59 435.215
Oscar 11 23 Mar 22:00:41 22:04:46 40° 262° (W) 22:08:51 .
ZACube-1 23 Mar 22:02:01 22:06:08 33° 264° (W) 22:10:14 437.345
PRISM 23 Mar 22:03:40 22:06:22 17° 93° (E) 22:09:03 437.425
ISS 23 Mar 22:17:41 22:20:30 27° 137° (SE) 22:23:19 437.550
Tancredo 1 23 Mar 22:31:58 22:34:58 40° 140° (SE) 22:37:59 437.200
AO-73 23 Mar 22:33:40 22:36:45 18° 268° (W) 22:39:50 145.935
AO-85 23 Mar 22:35:28 22:39:53 76° 122° (ESE) 22:44:02 145.980
DELFI C3 23 Mar 22:39:13 22:42:58 45° 261° (W) 22:46:46 145.870
STRAND 1 23 Mar 22:48:11 22:49:47 11° 304° (NW) 22:51:23 437.568
TIGRISAT 23 Mar 23:18:14 23:22:35 51° 99° (E) 23:26:49 435.000
UNISAT 6 23 Mar 23:27:21 23:31:49 70° 102° (ESE) 23:36:09 437.425
RS-15 23 Mar 23:27:52 23:40:07 76° 242° (WSW) 23:51:49 29.354- 29.394
BEESAT 3 23 Mar 23:37:13 23:40:42 32° 116° (ESE) 23:44:15 437.485
LO-87 23 Mar 23:37:53 23:41:27 79° 258° (WSW) 23:45:05 145.935 - 145.965
PRISM 23 Mar 23:37:53 23:41:51 43° 289° (WNW) 23:45:47 437.425
FO-29 23 Mar 23:38:53 23:44:56 50° 98° (E) 23:50:17 435.910
VELOX 1 23 Mar 23:40:52 23:43:57 19° 64° (ENE) 23:47:04 145.980
SO-50 23 Mar 23:44:14 23:47:42 21° 40° (NE) 23:51:08 436.795
BEESAT 2 23 Mar 23:46:49 23:49:19 16° 111° (ESE) 23:51:51 435.950
ESTCUBE 1 23 Mar 23:49:21 23:53:47 69° 74° (ENE) 23:58:15 437.505/2401.250
ISS 23 Mar 23:53:41 23:56:51 44° 335° (NNW) 00:00:01 437.550
Tancredo 1 24 Mar 00:08:14 00:11:10 33° 339° (NNW) 00:14:07 437.200
UKube-1 24 Mar 00:16:08 00:18:17 14° 61° (ENE) 00:20:27 .
AO-85 24 Mar 00:18:05 00:20:43 16° 320° (NW) 00:23:17 145.980
AIST 2D 24 Mar 00:28:33 00:31:55 43° 99° (E) 00:35:15 435.315
NANOSAT C BR1 24 Mar 00:34:21 00:37:58 27° 95° (E) 00:41:33 145.865
EO-79 24 Mar 00:36:46 00:40:34 31° 96° (E) 00:44:19 145.935-145.965
SPROUT 24 Mar 00:47:31 00:51:48 77° 75° (ENE) 00:56:08 437.525
50 SAT 24 Mar 00:50:25 00:53:49 60° 74° (ENE) 00:57:14 437.505
TIGRISAT 24 Mar 00:55:58 00:58:51 17° 297° (WNW) 01:01:41 435.000
DX 1 24 Mar 01:03:06 01:07:21 56° 72° (ENE) 01:11:38 434.975-435.025
POLYITAN 1 24 Mar 01:03:38 01:07:51 62° 101° (E) 01:12:02 437.675
UNISAT 6 24 Mar 01:05:50 01:07:55 13° 300° (WNW) 01:09:59 437.425
QB50P2 24 Mar 01:08:04 01:12:21 76° 103° (ESE) 01:16:33 145.880/145.840
BEESAT 3 24 Mar 01:14:55 01:18:19 27° 314° (NW) 01:21:45 437.485
VELOX 1 24 Mar 01:15:52 01:20:04 45° 261° (W) 01:24:21 145.980
BEESAT 2 24 Mar 01:22:51 01:26:42 48° 308° (NW) 01:30:37 435.950
SO-50 24 Mar 01:24:05 01:28:32 59° 240° (WSW) 01:32:56 436.795
FO-29 24 Mar 01:24:31 01:29:37 27° 300° (WNW) 01:34:15 435.910
DUCHIFAT 1 24 Mar 01:25:08 01:29:24 89° 136° (SE) 01:33:35 145.980
ESTCUBE 1 24 Mar 01:29:22 01:31:03 12° 271° (W) 01:32:45 437.505/2401.250
ISS 24 Mar 01:31:24 01:33:55 20° 354° (N) 01:36:26 437.550
RS-15 24 Mar 01:42:59 01:50:19 19° 264° (W) 01:57:31 29.354- 29.394
Tancredo 1 24 Mar 01:45:39 01:47:59 18° 358° (N) 01:50:21 437.200
UKube-1 24 Mar 01:49:31 01:53:47 64° 258° (WSW) 01:58:05 .
BUGSAT 1 24 Mar 01:53:59 01:58:11 63° 101° (ESE) 02:02:17 437.445
Gurwin Techsat 1B 24 Mar 01:56:50 01:59:00 12° 88° (E) 02:01:09 435.225
AIST 2D 24 Mar 02:03:17 02:04:45 12° 295° (WNW) 02:06:13 435.315
Oscar 19 24 Mar 02:05:27 02:09:46 26° 94° (E) 02:14:04 437.125/150
NANOSAT C BR1 24 Mar 02:10:01 02:13:38 27° 292° (WNW) 02:17:12 145.865
EO-79 24 Mar 02:12:44 02:16:11 24° 293° (WNW) 02:19:36 145.935-145.965
BEESAT 24 Mar 02:21:00 02:24:44 23° 64° (ENE) 02:28:30 436.000
O/OREOS (USA 219) 24 Mar 02:32:58 02:35:24 14° 49° (NE) 02:37:48 437.305
ITUPSAT 1 24 Mar 02:34:39 02:38:48 30° 67° (ENE) 02:42:58 437.325
POLYITAN 1 24 Mar 02:41:02 02:43:07 13° 298° (WNW) 02:45:11 437.675
DX 1 24 Mar 02:41:35 02:43:53 14° 269° (W) 02:46:12 434.975-435.025
QB50P2 24 Mar 02:46:08 02:47:30 11° 300° (WNW) 02:48:52 145.880/145.840
MOZHAYETS 4 24 Mar 03:04:53 03:08:35 24° 66° (ENE) 03:12:16
ISS 24 Mar 03:08:22 03:11:09 25° 15° (NNE) 03:13:57 437.550
Tancredo 1 24 Mar 03:22:02 03:24:52 28° 18° (NNE) 03:27:43 437.200
BUGSAT 1 24 Mar 03:31:00 03:33:00 13° 298° (WNW) 03:34:59 437.445
Gurwin Techsat 1B 24 Mar 03:34:16 03:39:37 86° 288° (WNW) 03:44:56 435.225
Oscar 19 24 Mar 03:44:23 03:49:12 40° 292° (WNW) 03:54:00 437.125/150
ITAMSAT 1 24 Mar 03:46:01 03:50:00 22° 93° (E) 03:53:56 435.822/435.867
CUBESAT XI-V 24 Mar 03:50:54 03:52:54 13° 60° (ENE) 03:54:56 437.345
BEESAT 24 Mar 03:57:45 04:02:16 42° 261° (W) 04:06:49 436.000
AO-7 24 Mar 04:08:02 04:15:18 33° 96° (E) 04:22:30 .
O/OREOS (USA 219) 24 Mar 04:10:47 04:15:25 81° 249° (WSW) 04:20:01 437.305
ITUPSAT 1 24 Mar 04:12:18 04:16:34 31° 264° (W) 04:20:50 437.325
MOZHAYETS 4 24 Mar 04:41:17 04:45:32 37° 263° (W) 04:49:49
KKS-1 24 Mar 04:43:39 04:48:00 57° 73° (ENE) 04:52:25 437.445
ISS 24 Mar 04:44:38 04:47:57 86° 212° (SSW) 04:51:15 437.550
Tancredo 1 24 Mar 04:58:02 05:01:12 57° 217° (SW) 05:04:21 437.200
M-CUBED/EXP-1 PRIME 24 Mar 05:15:27 05:17:12 13° 55° (NE) 05:19:02 437.505
Gurwin Techsat 1B 24 Mar 05:16:22 05:18:45 13° 303° (WNW) 05:21:07 435.225
ITAMSAT 1 24 Mar 05:24:42 05:29:43 49° 290° (WNW) 05:34:41 435.822/435.867
CUBESAT XI-V 24 Mar 05:25:03 05:29:39 77° 259° (W) 05:34:16 437.345
AO-85 24 Mar 05:26:47 05:28:29 12° 36° (NE) 05:30:11 145.980
STARS 24 Mar 05:28:02 05:32:26 75° 74° (ENE) 05:36:53 437.465
AO-7 24 Mar 06:00:21 06:08:27 60° 295° (WNW) 06:16:31 .
DOVE 4 24 Mar 06:05:43 06:08:34 14° 88° (E) 06:11:24 437.250
KKS-1 24 Mar 06:22:26 06:24:56 15° 269° (W) 06:27:26 437.445
ISS 24 Mar 06:22:49 06:23:56 11° 230° (SW) 06:25:04 437.550
STRAND 1 24 Mar 06:45:39 06:49:36 23° 63° (ENE) 06:53:34 437.568
M-CUBED/EXP-1 PRIME 24 Mar 06:47:34 06:51:06 58° 254° (WSW) 06:54:59 437.505
CUTE-I 24 Mar 06:53:51 06:58:17 26° 94° (E) 07:02:39 437.470
YUBILEINY 24 Mar 07:01:10 07:05:59 16° 75° (ENE) 07:10:46 435.215
LilacSat-2 24 Mar 07:04:41 07:08:07 32° 97° (E) 07:11:31 437.200
AO-85 24 Mar 07:05:33 07:09:29 86° 55° (NE) 07:13:31 145.980
STARS 24 Mar 07:08:12 07:09:18 11° 271° (W) 07:10:24 437.465
XW-2F 24 Mar 07:08:29 07:11:54 33° 97° (E) 07:15:17 145.980 - 146.000
HO-68 24 Mar 07:16:35 07:18:45 11° 85° (E) 07:20:54 435.675
XW-2D 24 Mar 07:32:23 07:36:08 73° 102° (ESE) 07:39:51 145.860 - 145.880
XW-2B 24 Mar 07:38:13 07:42:00 83° 103° (ESE) 07:45:44 145.730 - 145.750
DOVE 4 24 Mar 07:41:29 07:46:48 77° 285° (WNW) 07:52:04 437.250
NUDT-PHONESAT 24 Mar 07:42:11 07:45:52 75° 101° (ESE) 07:49:32 437.300
KAITUO 1B 24 Mar 07:45:50 07:49:33 84° 103° (ESE) 07:53:14 145.475/437.950
XW-2C 24 Mar 07:48:18 07:52:04 72° 284° (WNW) 07:55:47 145.795 - 145.815
BEESAT 3 24 Mar 07:52:41 07:56:15 30° 47° (NE) 07:59:49 437.485
AO-7 24 Mar 07:55:15 07:59:32 15° 317° (NW) 08:03:50 .
BEESAT 2 24 Mar 08:02:21 08:05:16 19° 41° (NE) 08:08:09 435.950
STRAND 1 24 Mar 08:23:27 08:28:27 49° 260° (W) 08:33:28 437.568
AAUSAT CUBESAT 2 24 Mar 08:32:48 08:34:38 13° 90° (E) 08:36:27 437.432
CUTE-I 24 Mar 08:33:25 08:38:29 44° 291° (WNW) 08:43:30 437.470
XW-2A 24 Mar 08:38:12 08:41:34 59° 100° (E) 08:44:53 145.665 - 145.685
SEEDS 24 Mar 08:38:31 08:42:13 30° 96° (E) 08:45:55 437.485
LilacSat-2 24 Mar 08:39:32 08:42:10 18° 293° (WNW) 08:44:47 437.200
CUTE 1.7 + AOD 2 24 Mar 08:39:48 08:43:53 47° 99° (E) 08:47:57 437.475
XW-2F 24 Mar 08:43:16 08:45:49 18° 294° (WNW) 08:48:21 145.980 - 146.000
YUBILEINY 24 Mar 08:52:33 09:01:18 81° 96° (E) 09:10:03 435.215
PRISM 24 Mar 08:54:40 08:56:57 15° 62° (ENE) 08:59:12 437.425
NO-84 24 Mar 08:58:53 09:01:43 79° 321° (NW) 09:04:36 435.350 FM
HO-68 24 Mar 09:00:32 09:07:43 70° 104° (ESE) 09:14:51 435.675
UWE-3 24 Mar 09:02:14 09:05:45 23° 93° (E) 09:09:10 435.000/436.395/437.385
DOVE 4 24 Mar 09:21:41 09:23:34 12° 303° (WNW) 09:25:27 437.250
CUBEBUG 2 24 Mar 09:29:28 09:33:58 76° 103° (ESE) 09:38:16 437.445
BEESAT 3 24 Mar 09:30:19 09:33:49 29° 245° (WSW) 09:37:16 437.485
BEESAT 2 24 Mar 09:39:23 09:43:23 57° 239° (WSW) 09:47:20 435.950
Oscar 11 24 Mar 09:46:34 09:50:27 32° 96° (E) 09:54:17 .
ZACube-1 24 Mar 09:48:51 09:52:56 43° 98° (E) 09:56:55 437.345
FO-29 24 Mar 09:50:38 09:57:18 32° 63° (ENE) 10:03:39 435.910
PCSat 24 Mar 09:57:49 10:01:34 19° 106° (ESE) 10:05:19 145.827
AAUSAT CUBESAT 2 24 Mar 10:06:22 10:10:26 57° 286° (WNW) 10:14:30 437.432
SEEDS 24 Mar 10:14:24 10:17:47 24° 292° (WNW) 10:21:10 437.485
DELFI C3 24 Mar 10:15:35 10:18:32 20° 93° (E) 10:21:28 145.870
CUTE 1.7 + AOD 2 24 Mar 10:16:40 10:19:21 17° 296° (WNW) 10:22:01 437.475
TIGRISAT 24 Mar 10:17:17 10:21:50 52° 72° (ENE) 10:26:23 435.000
AO-73 24 Mar 10:18:47 10:23:03 85° 101° (E) 10:27:13 145.935
UNISAT 6 24 Mar 10:26:29 10:31:09 70° 74° (ENE) 10:35:50 437.425
PRISM 24 Mar 10:27:50 10:31:48 52° 260° (W) 10:35:48 437.425
NO-84 24 Mar 10:38:00 10:39:42 14° 342° (NNW) 10:41:26 435.350 FM
UWE-3 24 Mar 10:38:22 10:42:15 32° 291° (WNW) 10:46:02 435.000/436.395/437.385
HO-68 24 Mar 10:49:11 10:54:49 26° 303° (WNW) 11:00:28 435.675
YUBILEINY 24 Mar 10:52:30 10:59:09 24° 297° (WNW) 11:05:50 435.215
AIST 2D 24 Mar 11:04:33 11:07:11 20° 68° (ENE) 11:09:50 435.315
CUBEBUG 2 24 Mar 11:08:10 11:09:53 12° 300° (WNW) 11:11:35 437.445
Oscar 11 24 Mar 11:22:57 11:26:26 24° 293° (WNW) 11:29:54 .
ZACube-1 24 Mar 11:25:59 11:28:53 18° 296° (WNW) 11:31:45 437.345
NANOSAT C BR1 24 Mar 11:27:30 11:30:57 24° 67° (ENE) 11:34:24 145.865
EO-79 24 Mar 11:30:09 11:33:47 28° 68° (ENE) 11:37:26 145.935-145.965
FO-29 24 Mar 11:34:09 11:41:55 61° 260° (W) 11:49:19 435.910
PCSat 24 Mar 11:39:03 11:44:26 64° 304° (WNW) 11:49:51 145.827
ESTCUBE 1 24 Mar 11:42:14 11:44:25 13° 90° (E) 11:46:36 437.505/2401.250
